Regional Weather Roundup
Issued by NWS

Home | Current Version | Previous Version | Text Only | Print | Product List | Glossary On
Versions: 1 2 3 4 5 6 7 8 9 10 11 12 13 14 15 16 17 18 19 20 21 22 23 24 25 26 27 28 29 30 31 32 33 34 35 36 37 38 39 40 41 42 43 44 45 46 47 48
000
ASUS43 KMPX 140110
RWRMN
WEATHER ROUNDUP FOR MINNESOTA
NATIONAL WEATHER SERVICE TWIN CITIES/CHANHASSEN MN
800 PM CDT THU AUG 13 2020


NOTE: "FAIR" INDICATES FEW OR NO CLOUDS BELOW 12,000 FEET WITH NO
SIGNIFICANT WEATHER AND/OR OBSTRUCTIONS TO VISIBILITY. N/A MEANS
CURRENT SKY AND/OR WEATHER CONDITIONS ARE NOT AVAILABLE.

MNZ060>063-068>070-140200-
   Twin Cities Metro

CITY           SKY/WX    TMP DP  RH WIND       PRES   REMARKS
TWIN CITIES    PTCLDY    83  72  69 S12       29.95R
ST PAUL        CLEAR     82  72  71 S9        29.96R
CRYSTAL        PTCLDY    84  71  65 S13G21    29.93R
BLAINE         PTCLDY    84  72  65 S14G21    29.95R
LAKEVILLE      CLEAR     81  66  61 S5        29.96S
EDEN PRAIRIE   CLEAR     82  71  69 S12       29.94R
SOUTH ST PAUL  CLEAR     82  70  66 S3        29.96R
LAKE ELMO      FAIR      79  70  73 S6        29.98S
$$
MNZ001>005-007-008-013>017-022>024-027-028-140200-
   Northwest Minnesota

CITY           SKY/WX    TMP DP  RH WIND       PRES   REMARKS
BEMIDJI        CLOUDY    76  73  90 SE13      29.88S
HALLOCK        PTCLDY    79  73  83 CALM      29.81S
ROSEAU         CLOUDY    79 N/A N/A SE7       29.84F
WARROAD        CLOUDY    75  73  94 SE7       29.87S
THIEF RVR FALL TSTM      73  68  83 E22G30    29.84R
CROOKSTON      TSTM      79  75  89 SE3       29.78F
FOSSTON        TSTM      68  63  83 CALM      29.84F
DETROIT LAKES    N/A     81  72  74 SE12      29.88R THUNDER
MOORHEAD       MOCLDY    90  70  51 S12       29.79F THUNDER HX  95
PARK RAPIDS    CLOUDY    81  72  74 SE9       29.89S
MAHNOMEN       TSTM      78  74  87 S9        29.83S
$$
MNZ006-009>011-018-025>026-140200-
   North Central Minnesota

CITY           SKY/WX    TMP DP  RH WIND       PRES   REMARKS
BAUDETTE       CLOUDY    74  69  85 SE10      29.87F
FLAG ISLAND      N/A     73  66  78 S10       29.86R
INTL FALLS     MOCLDY    73  67  81 SE9       29.93S
WASKISH        CLOUDY    73  70  88 SE7       29.88S
BIG FORK       MOCLDY    72  68  88 SE6       29.99S
LONGVILLE      CLOUDY    77  72  83 SE5       29.93R
GRAND RAPIDS   PTCLDY    75  71  87 SE6       29.97S
CRANE LAKE     CLOUDY    72  66  83 CALM      30.00F
ORR            LGT RAIN  70  66  88 SE5       29.96F
COOK           MOCLDY    72  66  83 SE3       29.98S
WALKER         CLOUDY    75  73  93 SE5       29.91S
$$
MNZ012-019>021-037-140200-
   Northeast Minnesota

CITY           SKY/WX    TMP DP  RH WIND       PRES   REMARKS
DULUTH         PTCLDY    70  64  81 E9        29.99F
ELY            MOCLDY    72  61  68 SE8       30.01F
HIBBING        CLOUDY    72  67  84 E8        29.99R
EVELETH        CLOUDY    71  66  84 E5        30.01R
DULUTH HARBOR  PTCLDY    66  63  88 NE14      29.98F
TWO HARBORS    PTCLDY    70  57  64 NE7       29.99S
SILVER BAY       N/A     70  57  64 NE3       30.02S
GRAND MARAIS     N/A     66  58  75 NE5       30.04S
G MARAIS ARPRT CLOUDY    66  55  68 E6        30.09R
$$
MNZ029>031-032-039>041-046>048-054>057-064-140200-
   West Central Minnesota

CITY           SKY/WX    TMP DP  RH WIND       PRES   REMARKS
FERGUS FALLS   PTCLDY    82  73  74 S12       29.84S
WHEATON        CLEAR     84  70  61 SE9       29.85R
MORRIS         CLEAR     81  72  74 S7        29.88R
ALEXANDRIA     CLEAR     82  72  71 S12       29.92R
ELBOW LAKE     MOCLDY    80  74  80 SE9       29.87R
WADENA         PTCLDY    79  72  78 S8        29.90S
GLENWOOD       CLEAR     82  73  74 S9        29.92R
APPLETON       PTCLDY    84  72  65 S6        29.87R
BENSON         CLEAR     81  73  78 S9        29.90R
ORTONVILLE     MOCLDY    82  72  69 S9G16     29.86S
MADISON        PTCLDY    82  73  74 S5        29.88R
WILLMAR        FAIR      82  72  69 S5        29.94R
$$
MNZ033>034-036-042>043-049>051-058-059-140200-
   Central Minnesota

CITY           SKY/WX    TMP DP  RH WIND       PRES   REMARKS
ST CLOUD       PTCLDY    79  73  82 SE7       29.93R
SAUK CENTRE    FAIR      80  73  79 S8        29.92R
PAYNESVILLE    CLEAR     82  74  79 S7        29.93R
AITKIN         PTCLDY    75  70  83 SE6       29.94R
PINE RIVER     PTCLDY    79  72  78 SE7       29.95S
BRAINERD       PTCLDY    82  72  71 SE7       29.93R
STAPLES        MOCLDY    81  72  74 SE8       29.91R
LONG PRAIRIE   FAIR      79  72  78 S6        29.93R
LITTLE FALLS   PTCLDY    81  73  78 SE7       29.93R
CAMP RIPLEY    MOCLDY    80  74  81 SE6       29.93R
LITCHFIELD     CLEAR     82  75  78 SE6       29.92S
BUFFALO        CLEAR     82  70  68 MISG      29.95R
MAPLE LAKE       N/A     81  74  79 S3        29.94S
HUTCHINSON     PTCLDY    82  75  80 SE3       29.94S
$$
MNZ037-044-045-052-053-140200-
   East Central Minnesota

CITY           SKY/WX    TMP DP  RH WIND       PRES   REMARKS
PRINCETON      CLEAR     82  72  69 SE3       29.94S
MORA           PTCLDY    79  70  73 SE5       29.97R
CAMBRIDGE      PTCLDY    84  70  61 SE6       29.95S
RUSH CITY      PTCLDY    80  70  73 SE6       29.96S
MOOSE LAKE     MOCLDY    79  72  78 CALM      29.95S
HINCKLEY       FAIR      81  73  78 SE7       29.96S
CLOQUET        PTCLDY    70  63  78 E5        29.99S
MCGREGOR       CLOUDY    79  72  78 SE5       29.96S
$$
MNZ071>073-080-081-089-090-097-098-140200-
   Southwest Minnesota

CITY           SKY/WX    TMP DP  RH WIND       PRES   REMARKS
MONTEVIDEO     CLEAR     82  70  65 SW7       29.90R
GRANITE FALLS  CLEAR     82  76  79 S3        29.91R HX  90
CANBY          CLEAR     83  70  64 S7        29.90R
MARSHALL         N/A     83  72  69 MISG        N/A
REDWOOD FALLS  CLEAR     81  73  76 S10       29.90R
OLIVIA         CLEAR     81  73  78 SE7       29.91R
PIPESTONE        N/A     81  72  74 S10       29.94R
WINDOM         CLEAR     81  70  69 SE10      29.94S
WORTHINGTON    CLEAR     80  71  74 S9        29.96R
JACKSON        CLEAR     81  68  65 SE9       29.97R
TRACY          CLEAR     82  70  67 S7        29.92R
SLAYTON        CLEAR     79  67  64 S7        29.95R
$$
MNZ065>067-074>077-082>085-091>093-140200-
   South Central Minnesota

CITY           SKY/WX    TMP DP  RH WIND       PRES   REMARKS
MANKATO        CLEAR     80  76  87 SE12      29.95S
NEW ULM        CLEAR     81  72  74 SE9       29.93S
ST JAMES         N/A     81  72  74 SE6       29.94R
FAIRMONT       CLEAR     82  73  74 SE12      29.96R
GLENCOE        CLEAR     81  74  80 SE6       29.93S
FARIBAULT      CLEAR     81  72  74 SE9       29.98S
OWATONNA       CLEAR     81  72  74 S9        29.98S
ALBERT LEA     PTCLDY    81  72  74 S7        29.99F
$$
MNZ078>079-086>088-094>096-140200-
   Southeast Minnesota

CITY           SKY/WX    TMP DP  RH WIND       PRES   REMARKS
ROCHESTER      PTCLDY    79  71  76 SE12      30.02S
RED WING       PTCLDY    82  72  69 SE6       29.97R
STANTON        CLEAR     81  72  74 S6        29.96S
DODGE CENTER   CLEAR     77  70  78 SE6       30.01S
WINONA         CLEAR     81  70  69 S5        30.01S
AUSTIN         CLEAR     79  73  83 SE3       30.01S
PRESTON        PTCLDY    78  69  74 SE8       30.05R
$$
ABBREVIATIONS USED IN REMARKS
   TC - TEMPERATURES IN CELSIUS
  WCI - WIND CHILL INDEX
   HX - HEAT INDEX
  VSB - VISIBILITY
$$




USA.gov is the U.S. government's official web portal to all federal, state and local government web resources and services.